Time,TemperatureF,DewpointF,PressureIn,WindDirection,WindDirectionDegrees,WindSpeedMPH,WindSpeedGustMPH,Humidity,HourlyPrecipIn,Conditions,Clouds,dailyrainin,SoftwareType,DateUTC
2017-04-25 00:02:00,53.1,48.7,30.08,North,349,0.0,3.0,85,0.00,,,0.00,meteohub,2017-04-25 07:02:00,
2017-04-25 00:07:00,52.9,48.6,30.08,NNE,18,0.0,3.0,85,0.00,,,0.00,meteohub,2017-04-25 07:07:00,
2017-04-25 00:12:00,52.9,48.6,30.09,NW,326,0.0,3.0,85,0.00,,,0.00,meteohub,2017-04-25 07:12:00,
2017-04-25 00:18:00,52.9,48.6,30.09,NW,326,0.0,1.0,85,0.00,,,0.00,meteohub,2017-04-25 07:18:00,
2017-04-25 00:23:00,52.9,48.6,30.09,NNW,342,0.0,1.0,85,0.00,,,0.00,meteohub,2017-04-25 07:23:00,
2017-04-25 00:28:00,53.2,48.6,30.09,NNW,335,0.0,4.0,84,0.00,,,0.00,meteohub,2017-04-25 07:28:00,
2017-04-25 00:33:00,53.4,48.4,30.09,NNW,327,0.0,4.0,83,0.00,,,0.00,meteohub,2017-04-25 07:33:00,
2017-04-25 00:38:00,53.2,48.6,30.08,SSW,211,0.0,2.0,84,0.00,,,0.00,meteohub,2017-04-25 07:38:00,
2017-04-25 00:43:00,53.2,48.6,30.08,SE,142,0.0,0.0,84,0.00,,,0.00,meteohub,2017-04-25 07:43:00,
2017-04-25 00:48:00,52.9,48.2,30.09,NNW,336,0.0,0.0,84,0.00,,,0.00,meteohub,2017-04-25 07:48:00,
2017-04-25 00:53:00,52.5,48.2,30.08,West,259,0.0,2.0,85,0.00,,,0.00,meteohub,2017-04-25 07:53:00,
2017-04-25 00:58:00,52.3,48.2,30.08,WSW,250,0.0,2.0,86,0.00,,,0.00,meteohub,2017-04-25 07:58:00,
2017-04-25 01:03:00,52.2,48.0,30.08,SSE,163,0.0,1.0,86,0.00,,,0.00,meteohub,2017-04-25 08:03:00,
2017-04-25 01:08:00,52.2,48.0,30.08,SSE,152,0.0,1.0,86,0.00,,,0.00,meteohub,2017-04-25 08:08:00,
2017-04-25 01:13:00,52.2,48.0,30.08,SW,226,0.0,0.0,86,0.00,,,0.00,meteohub,2017-04-25 08:13:00,
2017-04-25 01:19:00,52.2,48.0,30.08,South,176,0.0,1.0,86,0.00,,,0.00,meteohub,2017-04-25 08:19:00,
2017-04-25 01:24:00,52.2,47.8,30.08,North,9,0.0,1.0,85,0.00,,,0.00,meteohub,2017-04-25 08:24:00,
2017-04-25 01:29:00,52.2,47.5,30.08,NNE,12,1.0,1.0,84,0.00,,,0.00,meteohub,2017-04-25 08:29:00,
2017-04-25 01:34:00,52.3,47.3,30.08,South,174,1.0,1.0,83,0.00,,,0.00,meteohub,2017-04-25 08:34:00,
2017-04-25 01:39:00,52.3,47.3,30.08,North,0,0.0,1.0,83,0.00,,,0.00,meteohub,2017-04-25 08:39:00,
2017-04-25 01:44:00,52.3,46.9,30.09,North,0,0.0,1.0,82,0.00,,,0.00,meteohub,2017-04-25 08:44:00,
2017-04-25 01:49:00,52.2,46.8,30.09,NNE,15,0.0,1.0,82,0.00,,,0.00,meteohub,2017-04-25 08:49:00,
2017-04-25 01:54:00,52.5,47.1,30.09,NNE,23,2.0,0.0,82,0.00,,,0.00,meteohub,2017-04-25 08:54:00,
2017-04-25 01:59:00,53.1,46.0,30.08,NNE,16,1.0,6.0,77,0.00,,,0.00,meteohub,2017-04-25 08:59:00,
2017-04-25 02:04:00,53.4,46.0,30.08,North,8,4.0,6.0,76,0.00,,,0.00,meteohub,2017-04-25 09:04:00,
2017-04-25 02:09:00,53.8,46.4,30.08,NNE,13,3.0,6.0,76,0.00,,,0.00,meteohub,2017-04-25 09:09:00,
2017-04-25 02:14:00,54.0,46.2,30.08,North,7,2.0,6.0,75,0.00,,,0.00,meteohub,2017-04-25 09:14:00,
2017-04-25 02:19:00,54.0,46.2,30.08,NNW,346,3.0,6.0,75,0.00,,,0.00,meteohub,2017-04-25 09:19:00,
2017-04-25 02:22:00,54.1,46.0,30.08,NNE,22,6.0,6.0,74,0.00,,,0.00,meteohub,2017-04-25 09:22:00,
2017-04-25 02:27:00,54.1,46.4,30.08,NW,318,4.0,6.0,75,0.00,,,0.00,meteohub,2017-04-25 09:27:00,
2017-04-25 02:32:00,54.1,46.4,30.07,North,356,2.0,7.0,75,0.00,,,0.00,meteohub,2017-04-25 09:32:00,
2017-04-25 02:37:00,54.0,46.6,30.07,North,6,4.0,7.0,76,0.00,,,0.00,meteohub,2017-04-25 09:37:00,
2017-04-25 02:42:00,54.0,46.6,30.07,NNW,348,3.0,7.0,76,0.00,,,0.00,meteohub,2017-04-25 09:42:00,
2017-04-25 02:47:00,53.8,46.8,30.07,NNW,340,3.0,6.0,77,0.00,,,0.00,meteohub,2017-04-25 09:47:00,
2017-04-25 02:52:00,53.8,47.1,30.07,North,6,3.0,6.0,78,0.00,,,0.00,meteohub,2017-04-25 09:52:00,
2017-04-25 02:57:00,53.8,47.1,30.07,NNE,23,3.0,6.0,78,0.00,,,0.00,meteohub,2017-04-25 09:57:00,
2017-04-25 03:02:00,53.6,46.9,30.07,North,350,2.0,7.0,78,0.00,,,0.00,meteohub,2017-04-25 10:02:00,
2017-04-25 03:07:00,53.4,46.8,30.07,NNE,15,0.0,7.0,78,0.00,,,0.00,meteohub,2017-04-25 10:07:00,
2017-04-25 03:13:00,53.4,46.8,30.06,North,358,3.0,7.0,78,0.00,,,0.00,meteohub,2017-04-25 10:13:00,
2017-04-25 03:18:00,53.4,47.1,30.06,North,359,5.0,7.0,79,0.00,,,0.00,meteohub,2017-04-25 10:18:00,
2017-04-25 03:23:00,53.2,46.9,30.06,North,356,7.0,12.0,79,0.00,,,0.00,meteohub,2017-04-25 10:23:00,
2017-04-25 03:28:00,53.4,47.1,30.06,NNW,343,7.0,12.0,79,0.00,,,0.00,meteohub,2017-04-25 10:28:00,
2017-04-25 03:33:00,53.4,47.1,30.06,North,352,6.0,12.0,79,0.00,,,0.00,meteohub,2017-04-25 10:33:00,
2017-04-25 03:38:00,53.4,47.1,30.06,North,6,3.0,9.0,79,0.00,,,0.00,meteohub,2017-04-25 10:38:00,
2017-04-25 03:43:00,53.4,47.1,30.05,NNE,16,1.0,10.0,79,0.00,,,0.00,meteohub,2017-04-25 10:43:00,
2017-04-25 03:48:00,53.4,47.1,30.05,North,359,4.0,10.0,79,0.00,,,0.00,meteohub,2017-04-25 10:48:00,
2017-04-25 03:53:00,53.4,47.1,30.05,North,356,6.0,9.0,79,0.00,,,0.00,meteohub,2017-04-25 10:53:00,
2017-04-25 03:58:00,53.6,47.3,30.06,North,8,4.0,9.0,79,0.00,,,0.00,meteohub,2017-04-25 10:58:00,
2017-04-25 04:03:00,53.4,47.1,30.06,North,8,3.0,9.0,79,0.00,,,0.00,meteohub,2017-04-25 11:03:00,
2017-04-25 04:09:00,53.4,47.1,30.06,East,101,1.0,9.0,79,0.00,,,0.00,meteohub,2017-04-25 11:09:00,
2017-04-25 04:14:00,53.4,47.1,30.06,North,358,1.0,9.0,79,0.00,,,0.00,meteohub,2017-04-25 11:14:00,
2017-04-25 04:19:00,53.4,47.1,30.06,North,8,4.0,6.0,79,0.00,,,0.00,meteohub,2017-04-25 11:19:00,
2017-04-25 04:24:00,53.4,47.5,30.05,NW,311,0.0,6.0,80,0.00,,,0.00,meteohub,2017-04-25 11:24:00,
2017-04-25 04:29:00,53.4,47.5,30.06,North,350,0.0,7.0,80,0.00,,,0.00,meteohub,2017-04-25 11:29:00,
2017-04-25 04:34:00,53.4,47.5,30.06,NNE,12,4.0,7.0,80,0.00,,,0.00,meteohub,2017-04-25 11:34:00,
2017-04-25 04:39:00,53.4,47.7,30.06,NE,36,3.0,5.0,81,0.00,,,0.00,meteohub,2017-04-25 11:39:00,
2017-04-25 04:44:00,53.6,47.8,30.06,NNE,23,6.0,7.0,81,0.00,,,0.00,meteohub,2017-04-25 11:44:00,
2017-04-25 04:49:00,53.6,47.8,30.05,NNE,26,0.0,7.0,81,0.00,,,0.00,meteohub,2017-04-25 11:49:00,
2017-04-25 04:54:00,53.6,48.2,30.05,NNW,338,5.0,7.0,82,0.00,,,0.00,meteohub,2017-04-25 11:54:00,
2017-04-25 04:59:00,53.6,48.2,30.05,North,349,4.0,7.0,82,0.00,,,0.00,meteohub,2017-04-25 11:59:00,
2017-04-25 05:05:00,53.6,48.2,30.05,NNE,24,3.0,9.0,82,0.00,,,0.00,meteohub,2017-04-25 12:05:00,
2017-04-25 05:08:00,53.6,48.2,30.05,North,356,3.0,9.0,82,0.00,,,0.00,meteohub,2017-04-25 12:08:00,
2017-04-25 05:13:00,53.4,48.0,30.05,North,4,8.0,9.0,82,0.00,,,0.00,meteohub,2017-04-25 12:13:00,
2017-04-25 05:18:00,53.6,48.6,30.05,NNE,25,3.0,8.0,83,0.00,,,0.00,meteohub,2017-04-25 12:18:00,
2017-04-25 05:23:00,53.6,48.6,30.05,NNE,21,7.0,9.0,83,0.00,,,0.00,meteohub,2017-04-25 12:23:00,
2017-04-25 05:28:00,53.6,48.2,30.05,NE,40,7.0,12.0,82,0.00,,,0.00,meteohub,2017-04-25 12:28:00,
2017-04-25 05:34:00,53.4,48.0,30.05,North,6,3.0,12.0,82,0.00,,,0.00,meteohub,2017-04-25 12:34:00,
2017-04-25 05:39:00,53.6,48.6,30.05,North,5,3.0,12.0,83,0.00,,,0.00,meteohub,2017-04-25 12:39:00,
2017-04-25 05:44:00,53.6,48.6,30.05,NNE,16,3.0,9.0,83,0.00,,,0.00,meteohub,2017-04-25 12:44:00,
2017-04-25 05:49:00,53.6,48.6,30.04,North,6,1.0,9.0,83,0.00,,,0.00,meteohub,2017-04-25 12:49:00,
2017-04-25 05:54:00,53.6,48.2,30.05,North,4,3.0,5.0,82,0.00,,,0.00,meteohub,2017-04-25 12:54:00,
2017-04-25 05:59:00,53.8,48.4,30.04,NNW,330,2.0,5.0,82,0.00,,,0.00,meteohub,2017-04-25 12:59:00,
2017-04-25 06:04:00,53.8,48.4,30.04,North,1,5.0,6.0,82,0.00,,,0.00,meteohub,2017-04-25 13:04:00,
2017-04-25 06:09:00,53.8,48.7,30.05,North,354,5.0,6.0,83,0.00,,,0.00,meteohub,2017-04-25 13:09:00,
2017-04-25 06:14:00,53.8,48.4,30.05,NNE,19,2.0,6.0,82,0.00,,,0.00,meteohub,2017-04-25 13:14:00,
2017-04-25 06:19:00,53.8,48.4,30.05,NNW,338,3.0,9.0,82,0.00,,,0.00,meteohub,2017-04-25 13:19:00,
2017-04-25 06:24:00,53.8,48.0,30.05,NNE,20,4.0,9.0,81,0.00,,,0.00,meteohub,2017-04-25 13:24:00,
2017-04-25 06:30:00,53.6,47.8,30.05,North,4,3.0,9.0,81,0.00,,,0.00,meteohub,2017-04-25 13:30:00,
2017-04-25 06:35:00,53.6,47.8,30.05,NNE,15,1.0,9.0,81,0.00,,,0.00,meteohub,2017-04-25 13:35:00,
2017-04-25 06:40:00,53.8,48.0,30.06,NNW,345,2.0,9.0,81,0.00,,,0.00,meteohub,2017-04-25 13:40:00,
2017-04-25 06:45:00,53.8,48.0,30.06,NNE,28,3.0,7.0,81,0.00,,,0.00,meteohub,2017-04-25 13:45:00,
2017-04-25 06:50:00,53.8,48.4,30.06,NNE,12,2.0,7.0,82,0.00,,,0.00,meteohub,2017-04-25 13:50:00,
2017-04-25 06:52:00,53.8,48.4,30.06,NNE,16,2.0,7.0,82,0.00,,,0.00,meteohub,2017-04-25 13:52:00,
2017-04-25 06:57:00,53.6,48.6,30.06,North,10,2.0,7.0,83,0.00,,,0.00,meteohub,2017-04-25 13:57:00,
2017-04-25 07:02:00,53.8,49.1,30.06,NE,35,1.0,7.0,84,0.00,,,0.00,meteohub,2017-04-25 14:02:00,
2017-04-25 07:07:00,53.8,49.1,30.06,NW,326,0.0,5.0,84,0.00,,,0.00,meteohub,2017-04-25 14:07:00,
2017-04-25 07:12:00,54.1,49.1,30.06,North,352,1.0,5.0,83,0.00,,,0.00,meteohub,2017-04-25 14:12:00,
2017-04-25 07:17:00,54.3,49.3,30.06,NNW,336,2.0,4.0,83,0.00,,,0.00,meteohub,2017-04-25 14:17:00,
2017-04-25 07:22:00,54.5,48.7,30.06,NNE,23,0.0,2.0,81,0.00,,,0.00,meteohub,2017-04-25 14:22:00,
2017-04-25 07:27:00,55.0,48.9,30.07,North,0,0.0,2.0,80,0.00,,,0.00,meteohub,2017-04-25 14:27:00,
2017-04-25 07:32:00,55.4,48.9,30.07,NE,52,3.0,4.0,79,0.00,,,0.00,meteohub,2017-04-25 14:32:00,
2017-04-25 07:37:00,55.8,49.3,30.07,North,9,0.0,4.0,79,0.00,,,0.00,meteohub,2017-04-25 14:37:00,
2017-04-25 07:42:00,56.1,49.6,30.07,NE,34,0.0,4.0,79,0.00,,,0.00,meteohub,2017-04-25 14:42:00,
2017-04-25 07:47:00,56.1,48.9,30.07,NNW,333,0.0,4.0,77,0.00,,,0.00,meteohub,2017-04-25 14:47:00,
2017-04-25 07:52:00,56.5,49.3,30.07,NNE,26,0.0,2.0,77,0.00,,,0.00,meteohub,2017-04-25 14:52:00,
2017-04-25 07:57:00,56.5,49.3,30.07,North,6,4.0,5.0,77,0.00,,,0.00,meteohub,2017-04-25 14:57:00,
2017-04-25 08:02:00,56.3,49.5,30.08,North,11,2.0,5.0,78,0.00,,,0.00,meteohub,2017-04-25 15:02:00,
2017-04-25 08:07:00,56.1,49.3,30.07,NW,316,0.0,5.0,78,0.00,,,0.00,meteohub,2017-04-25 15:07:00,
2017-04-25 08:12:00,56.5,49.6,30.07,NW,325,1.0,5.0,78,0.00,,,0.00,meteohub,2017-04-25 15:12:00,
2017-04-25 08:17:00,56.5,49.3,30.07,North,10,1.0,6.0,77,0.00,,,0.00,meteohub,2017-04-25 15:17:00,
2017-04-25 08:22:00,56.7,49.8,30.07,NNE,13,0.0,6.0,78,0.00,,,0.00,meteohub,2017-04-25 15:22:00,
2017-04-25 08:27:00,57.0,49.8,30.07,NNE,23,2.0,6.0,77,0.00,,,0.00,meteohub,2017-04-25 15:27:00,
2017-04-25 08:32:00,57.4,49.5,30.07,NNW,340,2.0,4.0,75,0.00,,,0.00,meteohub,2017-04-25 15:32:00,
2017-04-25 08:37:00,57.4,49.5,30.07,ENE,57,4.0,6.0,75,0.00,,,0.00,meteohub,2017-04-25 15:37:00,
2017-04-25 08:42:00,57.4,49.8,30.08,NE,39,3.0,6.0,76,0.00,,,0.00,meteohub,2017-04-25 15:42:00,
2017-04-25 08:47:00,57.4,49.5,30.08,North,6,0.0,6.0,75,0.00,,,0.00,meteohub,2017-04-25 15:47:00,
2017-04-25 08:52:00,57.0,49.1,30.09,NNW,338,4.0,7.0,75,0.00,,,0.00,meteohub,2017-04-25 15:52:00,
2017-04-25 08:57:00,57.0,49.1,30.09,NNW,343,7.0,11.0,75,0.00,,,0.00,meteohub,2017-04-25 15:57:00,
2017-04-25 09:02:00,57.2,48.9,30.09,NNE,23,2.0,11.0,74,0.00,,,0.00,meteohub,2017-04-25 16:02:00,
2017-04-25 09:07:00,57.4,48.7,30.10,North,0,4.0,11.0,73,0.00,,,0.00,meteohub,2017-04-25 16:07:00,
2017-04-25 09:12:00,57.4,49.1,30.09,NNE,19,4.0,8.0,74,0.00,,,0.00,meteohub,2017-04-25 16:12:00,
2017-04-25 09:18:00,57.7,49.1,30.10,North,8,0.0,6.0,73,0.00,,,0.00,meteohub,2017-04-25 16:18:00,
2017-04-25 09:23:00,58.3,49.3,30.10,NNW,347,2.0,6.0,72,0.00,,,0.00,meteohub,2017-04-25 16:23:00,
2017-04-25 09:28:00,58.6,49.3,30.10,NNW,338,0.0,5.0,71,0.00,,,0.00,meteohub,2017-04-25 16:28:00,
2017-04-25 09:33:00,59.0,49.3,30.10,NNE,15,0.0,5.0,70,0.00,,,0.00,meteohub,2017-04-25 16:33:00,
2017-04-25 09:38:00,59.4,48.7,30.10,NE,37,0.0,5.0,68,0.00,,,0.00,meteohub,2017-04-25 16:38:00,
2017-04-25 09:43:00,59.4,48.7,30.10,North,4,0.0,1.0,68,0.00,,,0.00,meteohub,2017-04-25 16:43:00,
2017-04-25 09:48:00,59.7,48.7,30.11,NNE,19,0.0,1.0,67,0.00,,,0.00,meteohub,2017-04-25 16:48:00,
2017-04-25 09:53:00,59.9,48.6,30.11,North,1,1.0,2.0,66,0.00,,,0.00,meteohub,2017-04-25 16:53:00,
2017-04-25 09:58:00,59.9,48.6,30.11,North,359,0.0,2.0,66,0.00,,,0.00,meteohub,2017-04-25 16:58:00,
2017-04-25 10:03:00,60.4,49.1,30.12,North,354,1.0,2.0,66,0.00,,,0.00,meteohub,2017-04-25 17:03:00,
2017-04-25 10:08:00,60.4,48.6,30.11,NNW,340,0.0,2.0,65,0.00,,,0.00,meteohub,2017-04-25 17:08:00,
2017-04-25 10:14:00,60.3,49.3,30.10,North,10,4.0,4.0,67,0.00,,,0.00,meteohub,2017-04-25 17:14:00,
2017-04-25 10:19:00,59.5,49.3,30.10,NNW,344,5.0,7.0,69,0.00,,,0.00,meteohub,2017-04-25 17:19:00,
2017-04-25 10:24:00,59.2,50.2,30.10,North,351,3.0,8.0,72,0.00,,,0.00,meteohub,2017-04-25 17:24:00,
2017-04-25 10:29:00,59.0,50.4,30.10,NNE,26,5.0,8.0,73,0.00,,,0.00,meteohub,2017-04-25 17:29:00,
2017-04-25 10:34:00,58.8,50.9,30.11,North,11,2.0,8.0,75,0.00,,,0.00,meteohub,2017-04-25 17:34:00,
2017-04-25 10:39:00,58.8,50.9,30.11,NNE,18,3.0,8.0,75,0.00,,,0.00,meteohub,2017-04-25 17:39:00,
2017-04-25 10:44:00,59.0,51.4,30.11,NNW,330,3.0,8.0,76,0.00,,,0.00,meteohub,2017-04-25 17:44:00,
2017-04-25 10:49:00,59.0,50.7,30.12,North,358,3.0,7.0,74,0.00,,,0.00,meteohub,2017-04-25 17:49:00,
2017-04-25 10:54:00,58.8,50.5,30.12,NNE,32,0.0,6.0,74,0.00,,,0.00,meteohub,2017-04-25 17:54:00,
2017-04-25 10:59:00,58.8,50.5,30.12,North,8,0.0,8.0,74,0.00,,,0.00,meteohub,2017-04-25 17:59:00,
2017-04-25 11:05:00,59.2,51.3,30.12,North,10,6.0,8.0,75,0.00,,,0.00,meteohub,2017-04-25 18:05:00,
2017-04-25 11:10:00,58.8,51.3,30.12,North,1,5.0,8.0,76,0.00,,,0.00,meteohub,2017-04-25 18:10:00,
2017-04-25 11:15:00,58.8,51.6,30.12,NE,43,3.0,8.0,77,0.00,,,0.00,meteohub,2017-04-25 18:15:00,
2017-04-25 11:20:00,59.2,51.6,30.12,North,356,7.0,8.0,76,0.00,,,0.00,meteohub,2017-04-25 18:20:00,
2017-04-25 11:25:00,59.2,51.6,30.12,North,354,4.0,8.0,76,0.00,,,0.00,meteohub,2017-04-25 18:25:00,
2017-04-25 11:30:00,59.4,51.4,30.12,North,0,5.0,8.0,75,0.00,,,0.00,meteohub,2017-04-25 18:30:00,
2017-04-25 11:35:00,59.5,51.3,30.12,North,5,3.0,8.0,74,0.00,,,0.00,meteohub,2017-04-25 18:35:00,
2017-04-25 11:40:00,59.9,51.6,30.12,NNW,343,2.0,9.0,74,0.00,,,0.00,meteohub,2017-04-25 18:40:00,
2017-04-25 11:45:00,59.9,52.3,30.11,North,358,4.0,9.0,76,0.00,,,0.00,meteohub,2017-04-25 18:45:00,
2017-04-25 11:50:00,60.3,52.3,30.11,NNE,19,5.0,9.0,75,0.00,,,0.00,meteohub,2017-04-25 18:50:00,
2017-04-25 11:55:00,60.1,52.2,30.11,NNE,22,9.0,9.0,75,0.00,,,0.00,meteohub,2017-04-25 18:55:00,
2017-04-25 12:01:00,59.9,52.3,30.12,North,354,3.0,9.0,76,0.00,,,0.00,meteohub,2017-04-25 19:01:00,
2017-04-25 12:06:00,60.6,53.1,30.12,NNE,25,1.0,9.0,76,0.00,,,0.00,meteohub,2017-04-25 19:06:00,
2017-04-25 12:11:00,60.4,52.2,30.12,NNE,29,3.0,12.0,74,0.00,,,0.00,meteohub,2017-04-25 19:11:00,
2017-04-25 12:16:00,60.1,52.2,30.12,North,8,5.0,14.0,75,0.00,,,0.00,meteohub,2017-04-25 19:16:00,
2017-04-25 12:21:00,60.1,52.2,30.12,NNE,23,9.0,14.0,75,0.00,,,0.00,meteohub,2017-04-25 19:21:00,
2017-04-25 12:26:00,60.1,51.8,30.12,NW,326,5.0,14.0,74,0.00,,,0.00,meteohub,2017-04-25 19:26:00,
2017-04-25 12:31:00,60.3,52.3,30.12,ENE,77,2.0,13.0,75,0.00,,,0.00,meteohub,2017-04-25 19:31:00,
2017-04-25 12:36:00,60.4,52.5,30.11,North,0,1.0,14.0,75,0.00,,,0.00,meteohub,2017-04-25 19:36:00,
2017-04-25 12:41:00,60.4,52.5,30.11,North,11,7.0,15.0,75,0.00,,,0.00,meteohub,2017-04-25 19:41:00,
2017-04-25 12:46:00,60.4,52.5,30.10,North,352,10.0,15.0,75,0.00,,,0.00,meteohub,2017-04-25 19:46:00,
2017-04-25 12:51:00,60.4,52.5,30.10,ENE,57,5.0,15.0,75,0.00,,,0.00,meteohub,2017-04-25 19:51:00,
2017-04-25 12:56:00,60.6,53.1,30.10,NNE,24,1.0,11.0,76,0.00,,,0.00,meteohub,2017-04-25 19:56:00,
2017-04-25 13:02:00,61.0,53.4,30.10,NNE,22,8.0,11.0,76,0.00,,,0.00,meteohub,2017-04-25 20:02:00,
2017-04-25 13:07:00,60.3,52.3,30.10,NNW,338,4.0,11.0,75,0.00,,,0.00,meteohub,2017-04-25 20:07:00,
2017-04-25 13:12:00,60.1,52.5,30.10,NE,49,8.0,13.0,76,0.00,,,0.00,meteohub,2017-04-25 20:12:00,
2017-04-25 13:17:00,59.9,52.3,30.11,North,350,5.0,13.0,76,0.00,,,0.00,meteohub,2017-04-25 20:17:00,
2017-04-25 13:22:00,60.3,52.7,30.11,NNW,333,5.0,15.0,76,0.00,,,0.00,meteohub,2017-04-25 20:22:00,
2017-04-25 13:27:00,60.3,53.1,30.11,North,356,10.0,15.0,77,0.00,,,0.00,meteohub,2017-04-25 20:27:00,
2017-04-25 13:32:00,60.3,53.1,30.10,NW,311,6.0,20.0,77,0.00,,,0.00,meteohub,2017-04-25 20:32:00,
2017-04-25 13:37:00,60.4,53.2,30.10,North,6,7.0,20.0,77,0.00,,,0.00,meteohub,2017-04-25 20:37:00,
2017-04-25 13:42:00,61.0,53.4,30.10,North,7,12.0,16.0,76,0.00,,,0.00,meteohub,2017-04-25 20:42:00,
2017-04-25 13:47:00,60.8,52.9,30.10,NE,48,5.0,16.0,75,0.00,,,0.00,meteohub,2017-04-25 20:47:00,
2017-04-25 13:52:00,61.3,53.4,30.10,NE,37,6.0,16.0,75,0.00,,,0.00,meteohub,2017-04-25 20:52:00,
2017-04-25 13:57:00,61.5,52.7,30.10,NNE,25,11.0,16.0,73,0.00,,,0.00,meteohub,2017-04-25 20:57:00,
2017-04-25 14:02:00,60.3,52.3,30.10,NNE,25,12.0,16.0,75,0.00,,,0.00,meteohub,2017-04-25 21:02:00,
2017-04-25 14:07:00,59.5,52.7,30.10,NNE,20,10.0,20.0,78,0.00,,,0.00,meteohub,2017-04-25 21:07:00,
2017-04-25 14:12:00,59.7,53.2,30.10,NNW,329,9.0,20.0,79,0.00,,,0.00,meteohub,2017-04-25 21:12:00,
2017-04-25 14:17:00,59.5,53.1,30.10,NNE,25,14.0,20.0,79,0.00,,,0.00,meteohub,2017-04-25 21:17:00,
2017-04-25 14:22:00,59.5,53.1,30.10,NE,38,14.0,20.0,79,0.00,,,0.00,meteohub,2017-04-25 21:22:00,
2017-04-25 14:27:00,59.4,52.9,30.10,North,5,5.0,16.0,79,0.00,,,0.00,meteohub,2017-04-25 21:27:00,
2017-04-25 14:32:00,59.5,53.1,30.10,North,354,10.0,16.0,79,0.00,,,0.00,meteohub,2017-04-25 21:32:00,
2017-04-25 14:37:00,59.5,53.1,30.09,NNW,343,5.0,17.0,79,0.00,,,0.00,meteohub,2017-04-25 21:37:00,
2017-04-25 14:43:00,59.9,53.4,30.09,North,352,5.0,17.0,79,0.00,,,0.00,meteohub,2017-04-25 21:43:00,
2017-04-25 14:48:00,59.9,53.4,30.09,North,11,6.0,17.0,79,0.00,,,0.00,meteohub,2017-04-25 21:48:00,
2017-04-25 14:53:00,60.1,54.0,30.09,NNE,27,10.0,17.0,80,0.00,,,0.00,meteohub,2017-04-25 21:53:00,
2017-04-25 14:58:00,59.7,54.0,30.09,North,4,8.0,17.0,81,0.00,,,0.00,meteohub,2017-04-25 21:58:00,
2017-04-25 15:03:00,59.5,53.8,30.10,North,9,3.0,17.0,81,0.00,,,0.00,meteohub,2017-04-25 22:03:00,
2017-04-25 15:08:00,59.7,54.0,30.09,North,0,1.0,15.0,81,0.00,,,0.00,meteohub,2017-04-25 22:08:00,
2017-04-25 15:13:00,60.1,54.0,30.09,NNW,335,3.0,15.0,80,0.00,,,0.00,meteohub,2017-04-25 22:13:00,
2017-04-25 15:18:00,59.9,54.1,30.10,North,6,7.0,14.0,81,0.00,,,0.00,meteohub,2017-04-25 22:18:00,
2017-04-25 15:23:00,60.1,54.3,30.10,North,352,4.0,13.0,81,0.00,,,0.00,meteohub,2017-04-25 22:23:00,
2017-04-25 15:28:00,59.9,54.1,30.09,NNW,344,11.0,13.0,81,0.00,,,0.00,meteohub,2017-04-25 22:28:00,
2017-04-25 15:33:00,59.4,53.8,30.10,North,5,13.0,14.0,82,0.00,,,0.00,meteohub,2017-04-25 22:33:00,
2017-04-25 15:38:00,59.4,54.1,30.10,North,354,5.0,14.0,83,0.00,,,0.00,meteohub,2017-04-25 22:38:00,
2017-04-25 15:43:00,59.0,53.8,30.09,NNE,26,3.0,14.0,83,0.00,,,0.00,meteohub,2017-04-25 22:43:00,
2017-04-25 15:49:00,58.6,53.8,30.09,NNE,23,7.0,14.0,84,0.00,,,0.00,meteohub,2017-04-25 22:49:00,
2017-04-25 15:54:00,58.6,53.8,30.09,North,10,10.0,18.0,84,0.00,,,0.00,meteohub,2017-04-25 22:54:00,
2017-04-25 15:59:00,58.8,54.3,30.09,NNE,19,9.0,18.0,85,0.00,,,0.00,meteohub,2017-04-25 22:59:00,
2017-04-25 16:04:00,58.8,54.0,30.09,North,349,9.0,18.0,84,0.00,,,0.00,meteohub,2017-04-25 23:04:00,
2017-04-25 16:09:00,58.8,54.0,30.09,North,11,7.0,18.0,84,0.00,,,0.00,meteohub,2017-04-25 23:09:00,
2017-04-25 16:14:00,58.6,54.1,30.09,NNE,27,6.0,14.0,85,0.00,,,0.00,meteohub,2017-04-25 23:14:00,
2017-04-25 16:19:00,58.6,54.1,30.09,WNW,287,8.0,15.0,85,0.00,,,0.00,meteohub,2017-04-25 23:19:00,
2017-04-25 16:24:00,58.6,54.1,30.09,North,11,17.0,17.0,85,0.00,,,0.00,meteohub,2017-04-25 23:24:00,
2017-04-25 16:29:00,58.5,54.0,30.08,NNW,339,4.0,15.0,85,0.00,,,0.00,meteohub,2017-04-25 23:29:00,
2017-04-25 16:34:00,58.6,53.8,30.08,NNE,23,9.0,18.0,84,0.00,,,0.00,meteohub,2017-04-25 23:34:00,
2017-04-25 16:40:00,59.0,54.1,30.08,NNW,344,7.0,18.0,84,0.00,,,0.00,meteohub,2017-04-25 23:40:00,
2017-04-25 16:45:00,59.4,54.1,30.07,North,6,6.0,15.0,83,0.00,,,0.00,meteohub,2017-04-25 23:45:00,
2017-04-25 16:50:00,59.9,54.3,30.08,NNE,15,5.0,15.0,82,0.00,,,0.00,meteohub,2017-04-25 23:50:00,
2017-04-25 16:55:00,59.4,53.8,30.09,North,11,7.0,15.0,82,0.00,,,0.00,meteohub,2017-04-25 23:55:00,
2017-04-25 17:00:00,58.8,53.6,30.09,NNE,26,6.0,15.0,83,0.00,,,0.00,meteohub,2017-04-26 00:00:00,
2017-04-25 17:05:00,58.8,54.0,30.09,North,4,2.0,15.0,84,0.00,,,0.00,meteohub,2017-04-26 00:05:00,
2017-04-25 17:10:00,58.8,54.0,30.09,NNE,30,5.0,13.0,84,0.00,,,0.00,meteohub,2017-04-26 00:10:00,
2017-04-25 17:15:00,58.6,53.8,30.09,North,352,3.0,12.0,84,0.00,,,0.00,meteohub,2017-04-26 00:15:00,
2017-04-25 17:20:00,58.6,53.8,30.09,NNW,343,6.0,12.0,84,0.00,,,0.00,meteohub,2017-04-26 00:20:00,
2017-04-25 17:25:00,58.6,53.8,30.09,NNE,23,6.0,12.0,84,0.00,,,0.00,meteohub,2017-04-26 00:25:00,
2017-04-25 17:30:00,58.5,53.2,30.09,NNE,18,8.0,12.0,83,0.00,,,0.00,meteohub,2017-04-26 00:30:00,
2017-04-25 17:35:00,58.5,53.6,30.09,NNE,19,7.0,12.0,84,0.00,,,0.00,meteohub,2017-04-26 00:35:00,
2017-04-25 17:40:00,58.3,53.4,30.09,NNW,333,14.0,14.0,84,0.00,,,0.00,meteohub,2017-04-26 00:40:00,
2017-04-25 17:45:00,57.9,53.1,30.09,NNW,338,6.0,15.0,84,0.00,,,0.00,meteohub,2017-04-26 00:45:00,
2017-04-25 17:51:00,57.9,53.1,30.09,NNW,345,2.0,15.0,84,0.00,,,0.00,meteohub,2017-04-26 00:51:00,
2017-04-25 17:56:00,57.9,53.1,30.09,North,352,5.0,14.0,84,0.00,,,0.00,meteohub,2017-04-26 00:56:00,
2017-04-25 18:01:00,57.9,53.1,30.09,NNE,16,8.0,13.0,84,0.00,,,0.00,meteohub,2017-04-26 01:01:00,
2017-04-25 18:06:00,57.7,53.2,30.09,North,354,4.0,13.0,85,0.00,,,0.00,meteohub,2017-04-26 01:06:00,
2017-04-25 18:11:00,57.7,53.2,30.09,NNW,348,8.0,13.0,85,0.00,,,0.00,meteohub,2017-04-26 01:11:00,